| time (UTC) | temp F | wind direction | speed MPH | gust MPH | rain 1hr in | rain 24hr in | rain mn in | humidity % | barometer mb |
| 20260510174003 | 56 | 57 | 5.0 | 14.0 | 0.00 | 0.00 | 0.00 | 50 | 1013.8 |
| 20260510173003 | 56 | 47 | 6.0 | 11.0 | 0.00 | 0.00 | 0.00 | 50 | 1013.8 |
| 20260510172003 | 58 | 64 | 7.0 | 13.0 | 0.00 | 0.00 | 0.00 | 50 | 1013.9 |
| 20260510171003 | 57 | 60 | 5.0 | 13.0 | 0.00 | 0.00 | 0.00 | 53 | 1013.8 |
| 20260510170003 | 57 | 49 | 4.0 | 9.0 | 0.00 | 0.00 | 0.00 | 52 | 1014.1 |
| 20260510165003 | 57 | 58 | 6.0 | 16.0 | 0.00 | 0.00 | 0.00 | 51 | 1014.3 |
| 20260510164003 | 58 | 60 | 6.0 | 13.0 | 0.00 | 0.00 | 0.00 | 55 | 1014.3 |
| 20260510163003 | 57 | 55 | 6.0 | 13.0 | 0.00 | 0.00 | 0.00 | 53 | 1014.4 |
| 20260510162003 | 58 | 70 | 5.0 | 16.0 | 0.00 | 0.00 | 0.00 | 52 | 1014.6 |
| 20260510161003 | 57 | 62 | 5.0 | 10.0 | 0.00 | 0.00 | 0.00 | 52 | 1014.6 |
| 20260510160003 | 56 | 57 | 6.0 | 13.0 | 0.00 | 0.00 | 0.00 | 55 | 1014.7 |
| 20260510155003 | 57 | 77 | 7.0 | 14.0 | 0.00 | 0.00 | 0.00 | 54 | 1014.9 |
| 20260510154003 | 56 | 56 | 7.0 | 13.0 | 0.00 | 0.00 | 0.00 | 56 | 1014.9 |
| 20260510153003 | 57 | 59 | 6.0 | 11.0 | 0.00 | 0.00 | 0.00 | 57 | 1014.9 |
| 20260510152003 | 57 | 59 | 7.0 | 14.0 | 0.00 | 0.00 | 0.00 | 58 | 1015.0 |
| 20260510151003 | 57 | 64 | 7.0 | 14.0 | 0.00 | 0.00 | 0.00 | 60 | 1015.0 |
| 20260510150003 | 58 | 62 | 6.0 | 14.0 | 0.00 | 0.00 | 0.00 | 56 | 1015.4 |
| 20260510145217 | 57 | 65 | 6.0 | 14.0 | 0.00 | 0.00 | 0.00 | 56 | 1015.4 |
| 20260510144003 | 55 | 62 | 6.0 | 17.0 | 0.00 | 0.00 | 0.00 | 61 | 1015.6 |
| 20260510143003 | 56 | 60 | 6.0 | 13.0 | 0.00 | 0.00 | 0.00 | 60 | 1015.8 |
| 20260510142003 | 55 | 53 | 6.0 | 13.0 | 0.00 | 0.00 | 0.00 | 62 | 1015.9 |
| 20260510141003 | 55 | 61 | 7.0 | 16.0 | 0.00 | 0.00 | 0.00 | 62 | 1015.8 |
| 20260510140003 | 55 | 55 | 6.0 | 13.0 | 0.00 | 0.00 | 0.00 | 64 | 1015.9 |
| 20260510135003 | 55 | 56 | 7.0 | 15.0 | 0.00 | 0.00 | 0.00 | 63 | 1016.0 |
| 20260510134218 | 54 | 55 | 7.0 | 14.0 | 0.00 | 0.00 | 0.00 | 65 | 1016.2 |
| 20260510133003 | 54 | 49 | 7.0 | 14.0 | 0.00 | 0.00 | 0.00 | 64 | 1016.0 |
| 20260510132003 | 54 | 48 | 7.0 | 15.0 | 0.00 | 0.00 | 0.00 | 66 | 1016.3 |
| 20260510131003 | 54 | 42 | 7.0 | 19.0 | 0.00 | 0.00 | 0.00 | 66 | 1016.3 |
| 20260510130003 | 54 | 61 | 7.0 | 19.0 | 0.00 | 0.00 | 0.00 | 66 | 1016.1 |
| 20260510125003 | 54 | 40 | 6.0 | 14.0 | 0.00 | 0.00 | 0.00 | 67 | 1016.4 |
| 20260510124219 | 54 | 50 | 7.0 | 16.0 | 0.00 | 0.00 | 0.00 | 67 | 1016.6 |
| 20260510123003 | 54 | 52 | 8.0 | 18.0 | 0.00 | 0.00 | 0.00 | 68 | 1016.6 |
| 20260510122003 | 54 | 56 | 7.0 | 15.0 | 0.00 | 0.00 | 0.00 | 68 | 1016.7 |
| 20260510121003 | 54 | 50 | 7.0 | 15.0 | 0.00 | 0.00 | 0.00 | 69 | 1016.8 |
| 20260510120003 | 53 | 47 | 7.0 | 13.0 | 0.00 | 0.00 | 0.00 | 70 | 1017.0 |
| 20260510115003 | 53 | 43 | 6.0 | 17.0 | 0.00 | 0.00 | 0.00 | 70 | 1017.1 |
| 20260510114003 | 52 | 45 | 9.0 | 18.0 | 0.00 | 0.00 | 0.00 | 70 | 1017.0 |
| 20260510113003 | 52 | 60 | 7.0 | 15.0 | 0.00 | 0.00 | 0.00 | 72 | 1017.2 |
| 20260510112003 | 52 | 46 | 8.0 | 15.0 | 0.00 | 0.00 | 0.00 | 72 | 1017.2 |
| 20260510111003 | 51 | 49 | 6.0 | 14.0 | 0.00 | 0.00 | 0.00 | 73 | 1017.3 |
| 20260510110003 | 51 | 38 | 6.0 | 15.0 | 0.00 | 0.00 | 0.00 | 73 | 1017.3 |
| 20260510105003 | 51 | 37 | 7.0 | 17.0 | 0.00 | 0.00 | 0.00 | 74 | 1017.7 |
| 20260510104003 | 51 | 48 | 7.0 | 16.0 | 0.00 | 0.00 | 0.00 | 75 | 1017.7 |
| 20260510103003 | 51 | 55 | 6.0 | 13.0 | 0.00 | 0.00 | 0.00 | 76 | 1017.6 |
| 20260510102003 | 51 | 44 | 7.0 | 14.0 | 0.00 | 0.00 | 0.00 | 76 | 1017.7 |
| 20260510101003 | 51 | 47 | 7.0 | 15.0 | 0.00 | 0.00 | 0.00 | 77 | 1017.8 |
| 20260510100003 | 51 | 53 | 8.0 | 17.0 | 0.00 | 0.00 | 0.00 | 77 | 1017.6 |
| 20260510095003 | 50 | 58 | 8.0 | 17.0 | 0.00 | 0.00 | 0.00 | 77 | 1017.8 |
| 20260510094003 | 50 | 54 | 8.0 | 16.0 | 0.00 | 0.00 | 0.00 | 78 | 1017.8 |
| 20260510093003 | 50 | 59 | 7.0 | 15.0 | 0.00 | 0.00 | 0.00 | 79 | 1018.0 |
| 20260510092003 | 49 | 41 | 8.0 | 18.0 | 0.00 | 0.00 | 0.00 | 79 | 1018.0 |
| 20260510091003 | 49 | 37 | 7.0 | 15.0 | 0.00 | 0.00 | 0.00 | 79 | 1017.9 |
| 20260510090003 | 49 | 55 | 8.0 | 17.0 | 0.00 | 0.00 | 0.00 | 79 | 1018.1 |
| 20260510085003 | 49 | 46 | 8.0 | 17.0 | 0.00 | 0.00 | 0.00 | 79 | 1018.0 |
| 20260510084003 | 49 | 35 | 7.0 | 17.0 | 0.00 | 0.00 | 0.00 | 79 | 1018.1 |
| 20260510083003 | 49 | 55 | 8.0 | 15.0 | 0.00 | 0.00 | 0.00 | 79 | 1018.1 |
| 20260510082003 | 50 | 39 | 7.0 | 17.0 | 0.00 | 0.00 | 0.00 | 79 | 1018.1 |
| 20260510081003 | 50 | 34 | 7.0 | 15.0 | 0.00 | 0.00 | 0.00 | 79 | 1018.1 |
| 20260510080003 | 50 | 34 | 7.0 | 14.0 | 0.00 | 0.00 | 0.00 | 79 | 1017.9 |
| 20260510075003 | 50 | 49 | 7.0 | 15.0 | 0.00 | 0.00 | 0.00 | 79 | 1018.1 |
| 20260510074003 | 50 | 50 | 7.0 | 14.0 | 0.00 | 0.00 | 0.00 | 80 | 1018.0 |
| 20260510073218 | 51 | 41 | 7.0 | 18.0 | 0.00 | 0.00 | 0.00 | 79 | 1018.2 |
| 20260510072003 | 50 | 42 | 9.0 | 21.0 | 0.00 | 0.00 | 0.00 | 80 | 1017.9 |
| 20260510071003 | 50 | 39 | 7.0 | 17.0 | 0.00 | 0.00 | 0.00 | 80 | 1018.0 |
| 20260510070003 | 51 | 43 | 7.0 | 21.0 | 0.00 | 0.00 | 0.00 | 79 | 1017.8 |
| 20260510065003 | 50 | 43 | 8.0 | 17.0 | 0.00 | 0.00 | 0.00 | 80 | 1017.8 |
| 20260510064003 | 51 | 56 | 7.0 | 17.0 | 0.00 | 0.00 | 0.00 | 79 | 1017.8 |
| 20260510063003 | 51 | 36 | 6.0 | 13.0 | 0.00 | 0.00 | 0.00 | 79 | 1017.7 |
| 20260510062003 | 51 | 43 | 6.0 | 13.0 | 0.00 | 0.00 | 0.00 | 79 | 1017.6 |
| 20260510061003 | 51 | 48 | 5.0 | 11.0 | 0.00 | 0.00 | 0.00 | 79 | 1017.7 |
| 20260510060003 | 51 | 41 | 7.0 | 15.0 | 0.00 | 0.00 | 0.00 | 79 | 1017.5 |
| 20260510055003 | 50 | 40 | 6.0 | 14.0 | 0.00 | 0.00 | 0.00 | 79 | 1017.4 |
| 20260510054003 | 50 | 48 | 7.0 | 16.0 | 0.00 | 0.00 | 0.00 | 79 | 1017.5 |
| 20260510053003 | 50 | 37 | 6.0 | 17.0 | 0.00 | 0.00 | 0.00 | 80 | 1017.7 |
| 20260510052003 | 50 | 40 | 7.0 | 21.0 | 0.00 | 0.00 | 0.00 | 79 | 1017.5 |
| 20260510051221 | 49 | 37 | 7.0 | 13.0 | 0.00 | 0.00 | 0.00 | 80 | 1017.4 |
| 20260510050003 | 49 | 42 | 6.0 | 14.0 | 0.00 | 0.00 | 0.00 | 81 | 1017.5 |
| 20260510045003 | 49 | 28 | 6.0 | 14.0 | 0.00 | 0.00 | 0.00 | 80 | 1017.4 |
| 20260510044003 | 49 | 42 | 7.0 | 18.0 | 0.00 | 0.00 | 0.00 | 80 | 1017.6 |
| 20260510043003 | 49 | 40 | 7.0 | 15.0 | 0.00 | 0.00 | 0.00 | 80 | 1017.7 |
| 20260510042003 | 49 | 35 | 7.0 | 15.0 | 0.00 | 0.00 | 0.00 | 80 | 1017.7 |
| 20260510041217 | 49 | 43 | 7.0 | 15.0 | 0.00 | 0.00 | 0.00 | 80 | 1017.6 |
| 20260510040003 | 49 | 43 | 6.0 | 13.0 | 0.00 | 0.00 | 0.00 | 81 | 1017.7 |
| 20260510035003 | 49 | 35 | 6.0 | 14.0 | 0.00 | 0.00 | 0.00 | 82 | 1017.7 |
| 20260510034003 | 49 | 40 | 5.0 | 14.0 | 0.00 | 0.00 | 0.00 | 82 | 1017.8 |
| 20260510033003 | 49 | 46 | 5.0 | 14.0 | 0.00 | 0.00 | 0.00 | 83 | 1017.6 |
| 20260510032003 | 49 | 44 | 6.0 | 11.0 | 0.00 | 0.00 | 0.00 | 84 | 1018.0 |
| 20260510031003 | 49 | 41 | 7.0 | 19.0 | 0.00 | 0.00 | 0.00 | 84 | 1018.3 |
| 20260510030003 | 49 | 40 | 7.0 | 16.0 | 0.00 | 0.01 | 0.00 | 84 | 1018.1 |
| 20260510025003 | 49 | 48 | 7.0 | 18.0 | 0.00 | 0.01 | 0.00 | 84 | 1018.1 |
| 20260510024003 | 49 | 53 | 8.0 | 19.0 | 0.00 | 0.01 | 0.00 | 83 | 1018.2 |
| 20260510023003 | 50 | 62 | 7.0 | 15.0 | 0.00 | 0.01 | 0.00 | 83 | 1018.0 |
| 20260510022003 | 50 | 56 | 7.0 | 16.0 | 0.00 | 0.01 | 0.00 | 82 | 1018.1 |
| 20260510021218 | 50 | 45 | 8.0 | 18.0 | 0.00 | 0.01 | 0.00 | 81 | 1018.0 |
| 20260510020003 | 50 | 39 | 7.0 | 16.0 | 0.00 | 0.01 | 0.00 | 81 | 1018.0 |
| 20260510015003 | 50 | 48 | 8.0 | 15.0 | 0.00 | 0.01 | 0.00 | 81 | 1017.9 |
| 20260510014003 | 50 | 51 | 9.0 | 19.0 | 0.00 | 0.01 | 0.00 | 81 | 1018.0 |
| 20260510013003 | 50 | 48 | 8.0 | 16.0 | 0.00 | 0.01 | 0.00 | 81 | 1017.7 |
| 20260510012003 | 50 | 45 | 8.0 | 19.0 | 0.00 | 0.01 | 0.00 | 80 | 1018.0 |
| 20260510011003 | 50 | 49 | 9.0 | 17.0 | 0.00 | 0.01 | 0.00 | 79 | 1017.9 |
| 20260510010003 | 51 | 33 | 9.0 | 18.0 | 0.00 | 0.01 | 0.00 | 79 | 1017.8 |
| 20260510005003 | 51 | 35 | 10.0 | 19.0 | 0.00 | 0.01 | 0.00 | 79 | 1018.2 |
| 20260510004003 | 51 | 33 | 9.0 | 22.0 | 0.00 | 0.01 | 0.00 | 78 | 1018.0 |
| 20260510003003 | 51 | 29 | 8.0 | 21.0 | 0.00 | 0.01 | 0.00 | 79 | 1017.9 |
| 20260510002003 | 51 | 31 | 8.0 | 18.0 | 0.00 | 0.01 | 0.00 | 79 | 1017.9 |
| 20260510001003 | 52 | 23 | 8.0 | 21.0 | 0.00 | 0.01 | 0.00 | 79 | 1017.9 |
| 20260510000003 | 52 | 27 | 8.0 | 16.0 | 0.00 | 0.01 | 0.00 | 79 | 1017.7 |
| 20260509235003 | 52 | 26 | 8.0 | 14.0 | 0.00 | 0.01 | 0.00 | 79 | 1017.7 |
| 20260509234003 | 52 | 17 | 7.0 | 15.0 | 0.00 | 0.01 | 0.00 | 78 | 1017.7 |
| 20260509233003 | 53 | 20 | 6.0 | 14.0 | 0.00 | 0.01 | 0.00 | 78 | 1017.8 |
| 20260509232003 | 53 | 16 | 6.0 | 15.0 | 0.00 | 0.01 | 0.00 | 77 | 1017.7 |
| 20260509231003 | 53 | 19 | 7.0 | 17.0 | 0.00 | 0.01 | 0.00 | 77 | 1017.6 |
| 20260509230003 | 54 | 29 | 7.0 | 15.0 | 0.00 | 0.01 | 0.00 | 76 | 1017.5 |
| 20260509225003 | 54 | 23 | 7.0 | 16.0 | 0.00 | 0.01 | 0.01 | 75 | 1017.6 |
| 20260509224218 | 54 | 24 | 6.0 | 14.0 | 0.00 | 0.01 | 0.01 | 75 | 1017.4 |
| 20260509223003 | 55 | 25 | 6.0 | 17.0 | 0.00 | 0.01 | 0.01 | 75 | 1017.2 |
| 20260509222003 | 55 | 23 | 7.0 | 19.0 | 0.00 | 0.01 | 0.01 | 75 | 1017.3 |
| 20260509221003 | 56 | 19 | 6.0 | 15.0 | 0.00 | 0.01 | 0.01 | 75 | 1017.2 |
| 20260509220003 | 56 | 19 | 7.0 | 14.0 | 0.00 | 0.01 | 0.01 | 75 | 1017.2 |
| 20260509215003 | 56 | 16 | 6.0 | 15.0 | 0.00 | 0.01 | 0.01 | 74 | 1017.1 |
| 20260509214003 | 57 | 15 | 6.0 | 13.0 | 0.00 | 0.01 | 0.01 | 74 | 1017.2 |
| 20260509213003 | 57 | 19 | 6.0 | 17.0 | 0.00 | 0.01 | 0.01 | 73 | 1017.2 |
| 20260509212003 | 57 | 17 | 7.0 | 19.0 | 0.00 | 0.01 | 0.01 | 73 | 1017.0 |
| 20260509211003 | 57 | 15 | 7.0 | 16.0 | 0.00 | 0.01 | 0.01 | 74 | 1016.8 |
| 20260509210003 | 58 | 19 | 7.0 | 14.0 | 0.00 | 0.01 | 0.01 | 74 | 1016.7 |
| 20260509205003 | 58 | 6 | 5.0 | 14.0 | 0.00 | 0.01 | 0.01 | 74 | 1016.7 |
| 20260509204003 | 58 | 4 | 6.0 | 13.0 | 0.00 | 0.01 | 0.01 | 74 | 1016.6 |
| 20260509203220 | 58 | 1 | 5.0 | 13.0 | 0.00 | 0.01 | 0.01 | 73 | 1016.3 |
| 20260509202003 | 58 | 359 | 6.0 | 15.0 | 0.00 | 0.01 | 0.01 | 72 | 1016.3 |
| 20260509201003 | 59 | 3 | 7.0 | 15.0 | 0.00 | 0.01 | 0.01 | 72 | 1016.4 |
| 20260509200003 | 59 | 2 | 7.0 | 14.0 | 0.00 | 0.01 | 0.01 | 71 | 1016.2 |
| 20260509195003 | 59 | 3 | 7.0 | 14.0 | 0.00 | 0.01 | 0.01 | 70 | 1016.2 |
| 20260509194003 | 60 | 355 | 7.0 | 14.0 | 0.00 | 0.03 | 0.01 | 69 | 1016.2 |
| 20260509193003 | 61 | 358 | 7.0 | 15.0 | 0.00 | 0.07 | 0.01 | 68 | 1015.8 |
| 20260509192003 | 62 | 358 | 6.0 | 15.0 | 0.00 | 0.07 | 0.01 | 65 | 1015.8 |
| 20260509191003 | 62 | 360 | 3.0 | 7.0 | 0.00 | 0.07 | 0.01 | 55 | 1015.8 |
| 20260509190003 | 63 | 2 | 2.0 | 6.0 | 0.00 | 0.07 | 0.01 | 50 | 1015.6 |
| 20260509185003 | 63 | 5 | 2.0 | 6.0 | 0.00 | 0.07 | 0.01 | 50 | 1015.7 |
| 20260509184003 | 63 | 6 | 2.0 | 6.0 | 0.00 | 0.07 | 0.01 | 50 | 1015.5 |
| 20260509183003 | 64 | 8 | 2.0 | 4.0 | 0.00 | 0.07 | 0.01 | 50 | 1015.3 |
| 20260509182003 | 64 | 8 | 3.0 | 7.0 | 0.00 | 0.07 | 0.01 | 51 | 1015.4 |
| 20260509181003 | 64 | 9 | 3.0 | 6.0 | 0.00 | 0.07 | 0.01 | 51 | 1015.4 |
| 20260509180003 | 64 | 7 | 2.0 | 6.0 | 0.00 | 0.07 | 0.01 | 51 | 1015.3 |
| 20260509175220 | 64 | 10 | 3.0 | 7.0 | 0.00 | 0.07 | 0.01 | 49 | 1015.0 |